Location: Fayetteville
(35.0530°N, 78.8790°W)
Time: 03:04:33
(UTC-04:00)

ISS - Visible Passes

Search period start: 19 April 2014 00:00
Search period end: 29 April 2014 00:00
Orbit: 414 x 419 km, 51.6° (Epoch: 19 April)

Date Brightness Start Highest point End Pass type
(mag) Time Alt. Az. Time Alt. Az. Time Alt. Az.
19 Apr -0.5 22:18:33 10° NNW 22:19:41 18° NNW 22:19:41 18° NNW visible
20 Apr -1.5 21:30:28 10° NNW 21:33:10 22° NNE 21:33:12 22° NE visible
21 Apr -0.9 20:42:31 10° N 20:44:31 15° NNE 20:46:31 10° ENE visible
21 Apr -0.8 22:18:14 10° NW 22:19:38 23° WNW 22:19:38 23° WNW visible
22 Apr -3.2 21:29:45 10° NW 21:33:04 60° NE 21:33:09 60° NE visible
23 Apr -2.2 20:41:23 10° NNW 20:44:28 33° NE 20:46:42 16° E visible
23 Apr -0.5 22:18:31 10° W 22:19:36 15° W 22:19:36 15° W visible
24 Apr -2.3 21:29:26 10° WNW 21:32:33 37° SW 21:33:11 34° SSW visible
25 Apr -3.2 20:40:38 10° NW 20:43:59 77° SW 20:46:47 14° SE visible
26 Apr -0.5 21:30:25 10° WSW 21:31:38 12° SW 21:32:52 10° SSW visible
27 Apr -1.1 20:40:26 10° WNW 20:43:05 22° SW 20:45:43 10° S visible
